TimeCST,TemperatureF,Dew PointF,Humidity,Sea Level PressureIn,VisibilityMPH,Wind Direction,Wind SpeedMPH,Gust SpeedMPH,PrecipitationIn,Events,Conditions,WindDirDegrees,DateUTC
12:52 AM,18.0,3.0,52,30.40,10.0,North,6.9,-,N/A,,Clear,360,2013-01-22 06:52:00
1:52 AM,18.0,-0.0,45,30.42,10.0,North,6.9,-,N/A,,Clear,360,2013-01-22 07:52:00
2:52 AM,18.0,-0.0,45,30.42,10.0,North,5.8,-,N/A,,Partly Cloudy,360,2013-01-22 08:52:00
3:52 AM,18.0,1.0,48,30.42,10.0,North,4.6,-,N/A,,Mostly Cloudy,360,2013-01-22 09:52:00
4:52 AM,18.0,-2.9,40,30.43,10.0,North,6.9,-,N/A,,Clear,10,2013-01-22 10:52:00
5:52 AM,18.0,-2.9,40,30.45,10.0,North,8.1,-,N/A,,Clear,350,2013-01-22 11:52:00
6:52 AM,17.1,-2.9,41,30.46,10.0,NNE,5.8,-,N/A,,Clear,30,2013-01-22 12:52:00
7:52 AM,17.1,-2.0,43,30.47,10.0,North,3.5,-,N/A,,Clear,10,2013-01-22 13:52:00
8:52 AM,18.0,-2.9,40,30.49,10.0,NNE,4.6,-,N/A,,Overcast,30,2013-01-22 14:52:00
9:52 AM,19.0,-2.9,38,30.51,10.0,NW,3.5,-,N/A,,Scattered Clouds,310,2013-01-22 15:52:00
10:52 AM,19.9,-2.0,38,30.50,10.0,SW,4.6,21.9,N/A,,Overcast,220,2013-01-22 16:52:00
11:52 AM,19.9,-2.0,38,30.49,10.0,North,6.9,-,N/A,,Overcast,350,2013-01-22 17:52:00
12:52 PM,21.0,-2.0,36,30.45,10.0,North,6.9,-,N/A,,Overcast,360,2013-01-22 18:52:00
1:52 PM,21.9,-2.0,35,30.45,10.0,Calm,Calm,-,N/A,,Overcast,0,2013-01-22 19:52:00
2:52 PM,21.9,-0.0,38,30.43,10.0,Calm,Calm,-,N/A,,Overcast,0,2013-01-22 20:52:00
3:52 PM,23.0,-0.0,37,30.44,10.0,Calm,Calm,-,N/A,,Overcast,0,2013-01-22 21:52:00
4:52 PM,21.9,-0.0,38,30.43,10.0,Calm,Calm,-,N/A,,Overcast,0,2013-01-22 22:52:00
5:52 PM,21.9,1.0,40,30.42,10.0,Calm,Calm,-,N/A,,Overcast,0,2013-01-22 23:52:00
6:52 PM,21.9,1.9,42,30.41,10.0,East,3.5,-,N/A,,Overcast,80,2013-01-23 00:52:00
7:52 PM,23.0,3.0,42,30.41,10.0,Calm,Calm,-,N/A,,Overcast,0,2013-01-23 01:52:00
8:52 PM,21.9,3.9,46,30.41,10.0,Calm,Calm,-,N/A,,Overcast,0,2013-01-23 02:52:00
9:52 PM,23.0,5.0,46,30.41,10.0,East,3.5,-,N/A,,Overcast,100,2013-01-23 03:52:00
10:52 PM,21.9,6.1,51,30.42,10.0,Calm,Calm,-,N/A,,Mostly Cloudy,0,2013-01-23 04:52:00
11:52 PM,19.9,10.9,68,30.41,10.0,ENE,3.5,-,N/A,,Clear,70,2013-01-23 05:52:00